K4HG-2 Weather Reports


Display with metric or nautical units.
time (UTC)temp
F
wind
direction
speed
MPH
gust
MPH
rain 1hr
in
rain 24hr
in
rain mn
in
humidity
%
barometer
mb
20210123203318 77 296 1.0 8.0 0.00 0.00 0.00 63 1017.2
20210123203120 77 358 0.0 8.0 0.00 0.00 0.00 64 1017.2
20210123202917 77 28 1.0 8.0 0.00 0.00 0.00 64 1017.2
20210123202816 77 307 3.0 8.0 0.00 0.00 0.00 64 1017.2
20210123202719 77 60 0.0 8.0 0.00 0.00 0.00 64 1017.1
20210123202627 77 39 0.0 8.0 0.00 0.00 0.00 64 1017.2
20210123202558 77 299 4.0 8.0 0.00 0.00 0.00 64 1017.1
20210123202116 77 300 3.0 8.0 0.00 0.00 0.00 64 1017.1
20210123202031 77 326 3.0 8.0 0.00 0.00 0.00 64 1017.1
20210123201917 77 306 1.0 8.0 0.00 0.00 0.00 64 1017.1
20210123201717 77 340 3.0 7.0 0.00 0.00 0.00 64 1017.1
20210123201615 77 329 5.0 7.0 0.00 0.00 0.00 64 1017.1
20210123201528 77 98 0.0 7.0 0.00 0.00 0.00 64 1017.0
20210123201329 77 322 2.0 4.0 0.00 0.00 0.00 64 1017.1
20210123201222 77 233 1.0 4.0 0.00 0.00 0.00 64 1017.0
20210123201032 77 298 3.0 4.0 0.00 0.00 0.00 64 1017.0
20210123200916 77 312 5.0 4.0 0.00 0.00 0.00 64 1017.1
20210123200825 77 253 0.0 0.0 0.00 0.00 0.00 64 1017.1
20210123200719 77 111 0.0 0.0 0.00 0.00 0.00 64 1017.0
20210123200554 77 111 0.0 0.0 0.00 0.00 0.00 64 1017.0
20210123200145 77 111 0.0 6.0 0.00 0.00 0.00 64 1017.1
20210123200042 77 111 0.0 6.0 0.00 0.00 0.00 64 1017.1
20210123195915 77 111 0.0 6.0 0.00 0.00 0.00 64 1017.0
20210123195816 77 125 3.0 2.0 0.00 0.00 0.00 64 1017.0
20210123195716 77 102 1.0 2.0 0.00 0.00 0.00 64 1017.0
20210123195622 77 312 3.0 2.0 0.00 0.00 0.00 64 1017.0
20210123195321 77 26 0.0 4.0 0.00 0.00 0.00 64 1017.0
20210123195215 77 303 1.0 4.0 0.00 0.00 0.00 64 1017.0
20210123194926 77 348 0.0 4.0 0.00 0.00 0.00 64 1016.9
20210123194718 77 300 0.0 0.0 0.00 0.00 0.00 64 1016.9
20210123194616 77 300 0.0 0.0 0.00 0.00 0.00 64 1016.9
20210123194225 77 300 0.0 0.0 0.00 0.00 0.00 64 1016.9
20210123194113 77 300 0.0 0.0 0.00 0.00 0.00 64 1016.9
20210123193917 77 300 0.0 0.0 0.00 0.00 0.00 64 1016.9
20210123193516 77 300 0.0 2.0 0.00 0.00 0.00 64 1016.9
20210123193315 77 300 0.0 6.0 0.00 0.00 0.00 64 1016.9
20210123193216 77 300 0.0 6.0 0.00 0.00 0.00 64 1016.9
20210123193126 78 300 0.0 6.0 0.00 0.00 0.00 63 1016.9
20210123193042 78 300 0.0 6.0 0.00 0.00 0.00 63 1016.9
20210123192916 77 300 1.0 6.0 0.00 0.00 0.00 63 1016.9
20210123192617 77 327 3.0 6.0 0.00 0.00 0.00 63 1016.9
20210123192324 77 302 2.0 6.0 0.00 0.00 0.00 63 1017.0
20210123192116 78 4 1.0 6.0 0.00 0.00 0.00 63 1017.0
20210123191922 77 125 0.0 6.0 0.00 0.00 0.00 63 1017.0
20210123191535 77 275 1.0 5.0 0.00 0.00 0.00 62 1017.0
20210123191323 77 248 0.0 6.0 0.00 0.00 0.00 62 1017.1
20210123191126 78 248 0.0 6.0 0.00 0.00 0.00 61 1017.1
20210123190921 78 248 0.0 6.0 0.00 0.00 0.00 63 1017.1
20210123190820 77 230 0.0 5.0 0.00 0.00 0.00 63 1017.1
20210123190723 77 343 3.0 5.0 0.00 0.00 0.00 63 1017.0
20210123190622 78 322 5.0 5.0 0.00 0.00 0.00 63 1017.1
20210123190524 77 125 0.0 5.0 0.00 0.00 0.00 63 1017.0
20210123190325 77 286 3.0 5.0 0.00 0.00 0.00 63 1017.1
20210123185623 78 14 0.0 6.0 0.00 0.00 0.00 62 1017.2
20210123185316 77 30 0.0 2.0 0.00 0.00 0.00 63 1017.2
20210123185116 77 78 4.0 2.0 0.00 0.00 0.00 63 1017.2
20210123185029 78 317 4.0 2.0 0.00 0.00 0.00 62 1017.3
20210123184316 77 7 0.0 0.0 0.00 0.00 0.00 63 1017.3
20210123184116 77 291 4.0 0.0 0.00 0.00 0.00 62 1017.3
20210123184031 77 310 0.0 0.0 0.00 0.00 0.00 62 1017.3
20210123183917 77 306 5.0 0.0 0.00 0.00 0.00 62 1017.3
20210123183820 77 174 0.0 5.0 0.00 0.00 0.00 62 1017.4
20210123183619 77 174 0.0 5.0 0.00 0.00 0.00 62 1017.4
20210123183417 77 174 0.0 5.0 0.00 0.00 0.00 63 1017.5
20210123183038 77 319 4.0 7.0 0.00 0.00 0.00 63 1017.4
20210123182819 77 326 0.0 6.0 0.00 0.00 0.00 63 1017.5
20210123182616 77 317 4.0 6.0 0.00 0.00 0.00 63 1017.6
20210123182518 77 15 0.0 6.0 0.00 0.00 0.00 63 1017.5
20210123182316 77 305 4.0 5.0 0.00 0.00 0.00 63 1017.6
20210123182115 77 289 0.0 5.0 0.00 0.00 0.00 63 1017.7
20210123182023 77 289 0.0 5.0 0.00 0.00 0.00 63 1017.7
20210123181819 77 289 0.0 6.0 0.00 0.00 0.00 63 1017.7
20210123181732 77 289 0.0 6.0 0.00 0.00 0.00 63 1017.8
20210123181707 77 316 3.0 6.0 0.00 0.00 0.00 64 1017.8
20210123181554 77 322 3.0 6.0 0.00 0.00 0.00 64 1017.8
20210123181430 77 344 0.0 6.0 0.00 0.00 0.00 64 1017.8
20210123181217 77 64 2.0 7.0 0.00 0.00 0.00 64 1017.8
20210123180916 77 300 2.0 7.0 0.00 0.00 0.00 63 1017.9
20210123180816 77 306 2.0 5.0 0.00 0.00 0.00 63 1018.0
20210123180319 77 23 0.0 6.0 0.00 0.00 0.00 63 1018.1
20210123180026 77 73 0.0 6.0 0.00 0.00 0.00 64 1018.2
20210123175916 77 302 3.0 6.0 0.00 0.00 0.00 64 1018.2
20210123175819 77 78 0.0 7.0 0.00 0.00 0.00 64 1018.2
20210123175524 77 78 1.0 7.0 0.00 0.00 0.00 64 1018.2
20210123175322 77 75 1.0 5.0 0.00 0.00 0.00 64 1018.3
20210123175217 77 293 0.0 5.0 0.00 0.00 0.00 64 1018.3
20210123175116 77 295 3.0 5.0 0.00 0.00 0.00 64 1018.3
20210123175022 77 196 1.0 5.0 0.00 0.00 0.00 64 1018.3
20210123174916 77 215 1.0 5.0 0.00 0.00 0.00 65 1018.4
20210123174816 77 324 4.0 6.0 0.00 0.00 0.00 64 1018.3
20210123174715 77 77 3.0 6.0 0.00 0.00 0.00 64 1018.3
20210123174617 77 298 3.0 6.0 0.00 0.00 0.00 64 1018.4
20210123174528 77 7 0.0 6.0 0.00 0.00 0.00 65 1018.4
20210123174418 77 333 1.0 6.0 0.00 0.00 0.00 65 1018.4
20210123174322 77 82 0.0 4.0 0.00 0.00 0.00 65 1018.4
20210123174216 77 288 4.0 4.0 0.00 0.00 0.00 65 1018.4
20210123174119 77 39 1.0 4.0 0.00 0.00 0.00 65 1018.4
20210123173819 77 298 0.0 6.0 0.00 0.00 0.00 66 1018.5
20210123173317 77 254 1.0 7.0 0.00 0.00 0.00 66 1018.5
20210123173118 77 316 0.0 7.0 0.00 0.00 0.00 66 1018.6
20210123173025 77 316 0.0 7.0 0.00 0.00 0.00 65 1018.6
20210123172819 77 71 4.0 5.0 0.00 0.00 0.00 65 1018.7
20210123172716 77 80 0.0 5.0 0.00 0.00 0.00 65 1018.7
20210123172617 77 97 1.0 5.0 0.00 0.00 0.00 65 1018.7
20210123172325 76 81 2.0 6.0 0.00 0.00 0.00 65 1018.8
20210123171717 77 132 3.0 3.0 0.00 0.00 0.00 65 1018.8
20210123171618 76 50 0.0 3.0 0.00 0.00 0.00 65 1018.8
20210123171417 77 14 1.0 3.0 0.00 0.00 0.00 65 1018.8
20210123171317 77 28 1.0 5.0 0.00 0.00 0.00 66 1018.9
20210123171217 77 0 0.0 5.0 0.00 0.00 0.00 66 1018.9
20210123171118 77 9 1.0 5.0 0.00 0.00 0.00 66 1018.8
20210123170716 77 105 0.0 0.0 0.00 0.00 0.00 66 1018.9
20210123170420 76 105 0.0 0.0 0.00 0.00 0.00 66 1018.9
20210123170330 77 105 0.0 0.0 0.00 0.00 0.00 66 1018.9
20210123170216 76 105 0.0 0.0 0.00 0.00 0.00 66 1018.9
20210123170024 76 105 0.0 0.0 0.00 0.00 0.00 66 1018.9
20210123165918 76 105 0.0 0.0 0.00 0.00 0.00 66 1018.9
20210123165823 76 105 0.0 0.0 0.00 0.00 0.00 67 1018.9
20210123165716 77 105 0.0 0.0 0.00 0.00 0.00 67 1018.9
20210123165322 76 105 0.0 0.0 0.00 0.00 0.00 67 1018.9
20210123165026 76 105 0.0 0.0 0.00 0.00 0.00 66 1018.9
20210123164916 76 105 0.0 0.0 0.00 0.00 0.00 66 1019.0
20210123164815 76 105 0.0 0.0 0.00 0.00 0.00 66 1019.0
20210123164724 76 105 0.0 0.0 0.00 0.00 0.00 66 1019.0
20210123164615 76 105 0.0 0.0 0.00 0.00 0.00 67 1019.0
20210123164420 76 105 0.0 0.0 0.00 0.00 0.00 67 1019.0
20210123163918 76 105 0.0 0.0 0.00 0.00 0.00 67 1019.0
20210123163717 76 105 0.0 0.0 0.00 0.00 0.00 67 1019.1
20210123163624 76 105 0.0 0.0 0.00 0.00 0.00 67 1019.1
20210123163545 76 105 0.0 0.0 0.00 0.00 0.00 67 1019.0
20210123163118 76 105 0.0 4.0 0.00 0.00 0.00 67 1019.1
20210123162716 76 105 0.0 5.0 0.00 0.00 0.00 68 1019.1
20210123162417 76 286 3.0 5.0 0.00 0.00 0.00 68 1019.0
20210123162116 76 87 4.0 0.0 0.00 0.00 0.00 68 1019.1
20210123161916 75 309 0.0 0.0 0.00 0.00 0.00 68 1019.1
20210123161719 76 309 0.0 0.0 0.00 0.00 0.00 67 1019.1
20210123161616 76 309 0.0 0.0 0.00 0.00 0.00 67 1019.1
20210123161522 75 309 0.0 0.0 0.00 0.00 0.00 67 1019.1
20210123161115 76 309 0.0 0.0 0.00 0.00 0.00 68 1019.2
20210123161031 76 309 0.0 0.0 0.00 0.00 0.00 68 1019.2
20210123160816 76 309 0.0 4.0 0.00 0.00 0.00 68 1019.2
20210123160716 75 309 0.0 4.0 0.00 0.00 0.00 68 1019.2
20210123160520 76 309 0.0 4.0 0.00 0.00 0.00 68 1019.2
20210123160216 75 309 0.0 3.0 0.00 0.00 0.00 68 1019.2
20210123160025 75 319 0.0 3.0 0.00 0.00 0.00 68 1019.2
20210123155916 75 296 4.0 3.0 0.00 0.00 0.00 68 1019.2
20210123155720 75 289 2.0 3.0 0.00 0.00 0.00 68 1019.1
20210123155617 75 26 0.0 3.0 0.00 0.00 0.00 68 1019.2
20210123155522 75 323 1.0 3.0 0.00 0.00 0.00 68 1019.2
20210123155423 75 288 3.0 3.0 0.00 0.00 0.00 68 1019.2
20210123155318 75 268 2.0 0.0 0.00 0.00 0.00 68 1019.1
20210123155217 75 56 0.0 0.0 0.00 0.00 0.00 68 1019.2
20210123154816 75 56 0.0 0.0 0.00 0.00 0.00 69 1019.2
20210123154531 75 56 0.0 0.0 0.00 0.00 0.00 69 1019.2
20210123154418 75 56 0.0 0.0 0.00 0.00 0.00 68 1019.2
20210123154116 75 56 0.0 0.0 0.00 0.00 0.00 69 1019.2
20210123153917 75 56 0.0 0.0 0.00 0.00 0.00 69 1019.2
20210123153816 75 56 0.0 0.0 0.00 0.00 0.00 69 1019.2
20210123153716 75 56 0.0 0.0 0.00 0.00 0.00 69 1019.2
20210123153616 75 56 0.0 0.0 0.00 0.00 0.00 69 1019.2
20210123153516 75 56 0.0 0.0 0.00 0.00 0.00 69 1019.2
20210123153315 75 56 0.0 0.0 0.00 0.00 0.00 69 1019.2
20210123153216 75 56 0.0 0.0 0.00 0.00 0.00 69 1019.2
20210123153116 75 56 0.0 0.0 0.00 0.00 0.00 70 1019.2
20210123152916 75 56 0.0 0.0 0.00 0.00 0.00 70 1019.1
20210123152815 75 56 0.0 0.0 0.00 0.00 0.00 70 1019.1
20210123152717 75 56 0.0 0.0 0.00 0.00 0.00 70 1019.0
20210123152619 75 56 0.0 0.0 0.00 0.00 0.00 70 1019.1
20210123152528 75 56 0.0 0.0 0.00 0.00 0.00 70 1019.1
20210123152415 75 56 0.0 0.0 0.00 0.00 0.00 70 1019.1
20210123152116 75 56 0.0 0.0 0.00 0.00 0.00 71 1019.1
20210123151717 75 56 0.0 0.0 0.00 0.00 0.00 71 1019.1
20210123151317 75 56 0.0 0.0 0.00 0.00 0.00 72 1019.1
20210123151215 75 56 0.0 0.0 0.00 0.00 0.00 72 1019.1
20210123151117 75 56 0.0 0.0 0.00 0.00 0.00 72 1019.1
20210123150917 75 56 0.0 0.0 0.00 0.00 0.00 72 1019.1
20210123150616 75 56 0.0 0.0 0.00 0.00 0.00 73 1019.0
20210123150215 75 56 0.0 0.0 0.00 0.00 0.00 73 1019.1
20210123150117 75 56 0.0 0.0 0.00 0.00 0.00 73 1019.0
20210123145817 75 56 0.0 0.0 0.00 0.00 0.00 73 1019.0
20210123145718 74 56 0.0 0.0 0.00 0.00 0.00 73 1019.0
20210123145616 75 56 0.0 0.0 0.00 0.00 0.00 73 1019.0
20210123145416 74 56 0.0 0.0 0.00 0.00 0.00 73 1018.9
20210123145117 74 56 0.0 0.0 0.00 0.00 0.00 74 1018.9
20210123145028 74 56 0.0 0.0 0.00 0.00 0.00 74 1019.0
20210123144720 75 56 0.0 0.0 0.00 0.00 0.00 74 1018.9
20210123144319 74 56 0.0 0.0 0.00 0.00 0.00 75 1018.9
20210123143916 74 56 0.0 0.0 0.00 0.00 0.00 76 1019.0
20210123143817 74 56 0.0 0.0 0.00 0.00 0.00 76 1019.0
20210123143718 74 56 0.0 0.0 0.00 0.00 0.00 76 1018.9
20210123143316 74 56 0.0 0.0 0.00 0.00 0.00 77 1018.9
20210123143215 74 56 0.0 0.0 0.00 0.00 0.00 77 1018.9
20210123143118 74 56 0.0 0.0 0.00 0.00 0.00 77 1018.9
20210123142916 74 56 0.0 0.0 0.00 0.00 0.00 77 1018.9
20210123142717 74 56 0.0 0.0 0.00 0.00 0.00 77 1018.9
20210123142518 74 56 0.0 0.0 0.00 0.00 0.00 77 1018.9
20210123142418 74 56 0.0 0.0 0.00 0.00 0.00 77 1018.8
20210123142216 74 56 0.0 0.0 0.00 0.00 0.00 78 1018.8
20210123142119 74 56 0.0 0.0 0.00 0.00 0.00 78 1018.9
20210123142021 74 56 0.0 0.0 0.00 0.00 0.00 78 1018.9
20210123141916 74 56 0.0 0.0 0.00 0.00 0.00 78 1018.8
20210123141820 74 56 0.0 0.0 0.00 0.00 0.00 78 1018.8
20210123141717 74 56 0.0 0.0 0.00 0.00 0.00 78 1018.8
20210123141615 74 56 0.0 0.0 0.00 0.00 0.00 78 1018.9
20210123141415 74 56 0.0 0.0 0.00 0.00 0.00 78 1018.9
20210123141215 74 56 0.0 0.0 0.00 0.00 0.00 79 1018.9
20210123141118 74 56 0.0 0.0 0.00 0.00 0.00 79 1018.8
20210123141019 74 56 0.0 0.0 0.00 0.00 0.00 79 1018.8
20210123140916 74 56 0.0 0.0 0.00 0.00 0.00 79 1018.8
20210123140816 74 56 0.0 0.0 0.00 0.00 0.00 79 1018.8
20210123140616 74 56 0.0 0.0 0.00 0.00 0.00 79 1018.8
20210123140418 74 56 0.0 0.0 0.00 0.00 0.00 79 1018.8
20210123140216 74 56 0.0 0.0 0.00 0.00 0.00 80 1018.7
20210123140116 74 56 0.0 0.0 0.00 0.00 0.00 80 1018.7
20210123135915 74 56 0.0 0.0 0.00 0.00 0.00 80 1018.7
20210123135816 74 56 0.0 0.0 0.00 0.00 0.00 81 1018.7
20210123135716 74 56 0.0 0.0 0.00 0.00 0.00 81 1018.7
20210123135525 74 56 0.0 0.0 0.00 0.00 0.00 81 1018.7
20210123135416 74 56 0.0 0.0 0.00 0.00 0.00 82 1018.7
20210123135316 73 56 0.0 0.0 0.00 0.00 0.00 82 1018.7
20210123135215 73 56 0.0 0.0 0.00 0.00 0.00 82 1018.7
20210123135121 74 56 0.0 0.0 0.00 0.00 0.00 82 1018.6
20210123134816 73 56 0.0 0.0 0.00 0.00 0.00 83 1018.6
20210123134717 73 56 0.0 0.0 0.00 0.00 0.00 83 1018.6
20210123134618 73 56 0.0 0.0 0.00 0.00 0.00 83 1018.6
20210123134523 73 56 0.0 0.0 0.00 0.00 0.00 83 1018.6
20210123134418 73 56 0.0 0.0 0.00 0.00 0.00 84 1018.6
20210123134320 73 56 0.0 0.0 0.00 0.00 0.00 84 1018.6
20210123133816 72 56 0.0 0.0 0.00 0.00 0.00 85 1018.5
20210123133617 72 56 0.0 0.0 0.00 0.00 0.00 85 1018.5
20210123133418 71 56 0.0 0.0 0.00 0.00 0.00 85 1018.4
20210123132916 71 56 0.0 0.0 0.00 0.00 0.00 86 1018.4
20210123132818 71 56 0.0 0.0 0.00 0.00 0.00 86 1018.3
20210123132621 71 56 0.0 0.0 0.00 0.00 0.00 86 1018.3
20210123132317 70 56 0.0 0.0 0.00 0.00 0.00 86 1018.3
20210123132217 70 56 0.0 0.0 0.00 0.00 0.00 86 1018.3
20210123132120 70 56 0.0 0.0 0.00 0.00 0.00 86 1018.2
20210123132030 70 56 0.0 0.0 0.00 0.00 0.00 86 1018.2
20210123131818 69 56 0.0 0.0 0.00 0.00 0.00 86 1018.2
20210123131615 69 56 0.0 0.0 0.00 0.00 0.00 85 1018.1
20210123130824 69 56 0.0 0.0 0.00 0.00 0.00 85 1018.1
20210123130116 69 56 0.0 0.0 0.00 0.00 0.00 84 1017.8
20210123130022 69 56 0.0 0.0 0.00 0.00 0.00 84 1017.9
20210123125815 69 56 0.0 0.0 0.00 0.00 0.00 84 1017.8
20210123125617 69 56 0.0 0.0 0.00 0.00 0.00 84 1017.8
20210123125524 69 56 0.0 0.0 0.00 0.00 0.00 84 1017.8
20210123125416 69 56 0.0 0.0 0.00 0.00 0.00 84 1017.9
20210123125116 69 56 0.0 0.0 0.00 0.00 0.00 84 1017.8
20210123125022 69 56 0.0 0.0 0.00 0.00 0.00 84 1017.8
20210123124917 69 56 0.0 0.0 0.00 0.00 0.00 84 1017.8
20210123124623 69 56 0.0 0.0 0.00 0.00 0.00 84 1017.8
20210123124524 69 56 0.0 0.0 0.00 0.00 0.00 84 1017.8
20210123124417 69 56 0.0 0.0 0.00 0.00 0.00 84 1017.8
20210123124316 69 56 0.0 0.0 0.00 0.00 0.00 84 1017.7
20210123124217 69 56 0.0 0.0 0.00 0.00 0.00 84 1017.7
20210123123526 69 56 0.0 0.0 0.00 0.00 0.00 83 1017.7
20210123123216 69 56 0.0 0.0 0.00 0.00 0.00 83 1017.7
20210123122815 69 56 0.0 0.0 0.00 0.00 0.00 83 1017.6
20210123122521 69 56 0.0 0.0 0.00 0.00 0.00 83 1017.6
20210123122325 69 56 0.0 0.0 0.00 0.00 0.00 83 1017.5
20210123122216 69 56 0.0 0.0 0.00 0.00 0.00 83 1017.5
20210123122116 69 56 0.0 0.0 0.00 0.00 0.00 83 1017.5
20210123122020 69 56 0.0 0.0 0.00 0.00 0.00 83 1017.5
20210123121916 69 56 0.0 0.0 0.00 0.00 0.00 83 1017.4
20210123121716 69 56 0.0 0.0 0.00 0.00 0.00 83 1017.4
20210123121616 69 56 0.0 0.0 0.00 0.00 0.00 83 1017.4
20210123121524 69 56 0.0 0.0 0.00 0.00 0.00 83 1017.4
20210123121315 69 56 0.0 0.0 0.00 0.00 0.00 83 1017.3
20210123121021 69 56 0.0 0.0 0.00 0.00 0.00 83 1017.3
20210123120517 69 56 0.0 0.0 0.00 0.00 0.00 83 1017.3
20210123120315 69 56 0.0 0.0 0.00 0.00 0.00 83 1017.3
20210123120034 69 56 0.0 0.0 0.00 0.00 0.00 83 1017.2
20210123115917 69 56 0.0 0.0 0.00 0.00 0.00 83 1017.2
20210123115715 69 56 0.0 0.0 0.00 0.00 0.00 83 1017.2
20210123115622 69 56 0.0 0.0 0.00 0.00 0.00 83 1017.2
20210123115524 69 56 0.0 0.0 0.00 0.00 0.00 83 1017.2
20210123115317 69 56 0.0 0.0 0.00 0.00 0.00 83 1017.2
20210123115034 69 56 0.0 0.0 0.00 0.00 0.00 83 1017.1
20210123114916 69 56 0.0 0.0 0.00 0.00 0.00 83 1017.1
20210123114529 69 56 0.0 0.0 0.00 0.00 0.00 83 1017.1
20210123114415 69 56 0.0 0.0 0.00 0.00 0.00 83 1017.0
20210123114318 69 56 0.0 0.0 0.00 0.00 0.00 83 1017.0
20210123114217 69 56 0.0 0.0 0.00 0.00 0.00 83 1017.0
20210123114118 69 56 0.0 0.0 0.00 0.00 0.00 83 1017.0
20210123114027 69 56 0.0 0.0 0.00 0.00 0.00 83 1016.9
20210123113818 69 56 0.0 0.0 0.00 0.00 0.00 83 1017.0
20210123113719 69 56 0.0 0.0 0.00 0.00 0.00 83 1017.0
20210123113521 69 56 0.0 0.0 0.00 0.00 0.00 83 1017.0
20210123113415 69 56 0.0 0.0 0.00 0.00 0.00 83 1017.0
20210123113116 69 56 0.0 0.0 0.00 0.00 0.00 83 1016.9
20210123112816 69 56 0.0 0.0 0.00 0.00 0.00 83 1016.9
20210123112716 69 56 0.0 0.0 0.00 0.00 0.00 83 1016.9
20210123112639 69 56 0.0 0.0 0.00 0.00 0.00 83 1016.9
20210123112416 69 56 0.0 0.0 0.00 0.00 0.00 83 1016.9
20210123112216 69 56 0.0 0.0 0.00 0.00 0.00 83 1016.8
20210123112116 69 56 0.0 0.0 0.00 0.00 0.00 83 1016.8
20210123112022 69 56 0.0 0.0 0.00 0.00 0.00 83 1016.8
20210123111915 69 56 0.0 0.0 0.00 0.00 0.00 83 1016.8
20210123111715 69 56 0.0 0.0 0.00 0.00 0.00 83 1016.7
20210123111619 69 56 0.0 0.0 0.00 0.00 0.00 83 1016.7
20210123111522 69 56 0.0 0.0 0.00 0.00 0.00 83 1016.7
20210123111416 69 56 0.0 0.0 0.00 0.00 0.00 83 1016.7
20210123111216 69 56 0.0 0.0 0.00 0.00 0.00 83 1016.7
20210123110816 69 56 0.0 0.0 0.00 0.00 0.00 83 1016.6
20210123110716 69 56 0.0 0.0 0.00 0.00 0.00 83 1016.6
20210123110628 69 56 0.0 0.0 0.00 0.00 0.00 83 1016.6
20210123110416 69 56 0.0 0.0 0.00 0.00 0.00 84 1016.6
20210123110316 69 56 0.0 0.0 0.00 0.00 0.00 84 1016.6
20210123110218 69 56 0.0 0.0 0.00 0.00 0.00 84 1016.6
20210123110039 69 56 0.0 0.0 0.00 0.00 0.00 84 1016.6
20210123105715 69 56 0.0 0.0 0.00 0.00 0.00 83 1016.6
20210123105618 69 56 0.0 0.0 0.00 0.00 0.00 83 1016.6
20210123105420 69 56 0.0 0.0 0.00 0.00 0.00 83 1016.5
20210123105122 69 56 0.0 0.0 0.00 0.00 0.00 84 1016.6
20210123104917 69 56 0.0 0.0 0.00 0.00 0.00 84 1016.6
20210123104826 69 56 0.0 0.0 0.00 0.00 0.00 84 1016.6
20210123104716 69 56 0.0 0.0 0.00 0.00 0.00 84 1016.5
20210123104526 69 56 0.0 0.0 0.00 0.00 0.00 84 1016.5
20210123104418 69 56 0.0 0.0 0.00 0.00 0.00 84 1016.5
20210123104321 69 56 0.0 0.0 0.00 0.00 0.00 84 1016.5
20210123104023 69 56 0.0 0.0 0.00 0.00 0.00 83 1016.4
20210123103919 69 56 0.0 0.0 0.00 0.00 0.00 83 1016.5
20210123103116 69 56 0.0 0.0 0.00 0.00 0.00 84 1016.4
20210123102816 69 56 0.0 0.0 0.00 0.00 0.00 84 1016.5
20210123102720 69 56 0.0 0.0 0.00 0.00 0.00 84 1016.4
20210123102618 69 56 0.0 0.0 0.00 0.00 0.00 84 1016.4
20210123102416 69 56 0.0 0.0 0.00 0.00 0.00 84 1016.4
20210123102218 69 56 0.0 0.0 0.00 0.00 0.00 85 1016.4
20210123102031 69 56 0.0 0.0 0.00 0.00 0.00 85 1016.4
20210123101922 69 56 0.0 0.0 0.00 0.00 0.00 85 1016.3
20210123101820 69 56 0.0 0.0 0.00 0.00 0.00 85 1016.4
20210123101615 69 56 0.0 0.0 0.00 0.00 0.00 85 1016.3
20210123101543 69 56 0.0 0.0 0.00 0.00 0.00 85 1016.3
20210123101215 69 56 0.0 0.0 0.00 0.00 0.00 85 1016.3
20210123101116 69 56 0.0 0.0 0.00 0.00 0.00 85 1016.3
20210123100615 69 56 0.0 0.0 0.00 0.00 0.00 85 1016.4
20210123100524 69 56 0.0 0.0 0.00 0.00 0.00 84 1016.3
20210123100322 69 56 0.0 0.0 0.00 0.00 0.00 84 1016.4
20210123100117 69 56 0.0 0.0 0.00 0.00 0.00 84 1016.4
20210123095719 69 56 0.0 0.0 0.00 0.00 0.00 83 1016.4
20210123095616 69 56 0.0 0.0 0.00 0.00 0.00 83 1016.4
20210123095217 69 56 0.0 0.0 0.00 0.00 0.00 82 1016.4
20210123094916 69 56 0.0 0.0 0.00 0.00 0.00 82 1016.4
20210123094619 69 56 0.0 0.0 0.00 0.00 0.00 82 1016.4
20210123094216 69 56 0.0 0.0 0.00 0.00 0.00 82 1016.3
20210123094117 69 56 0.0 0.0 0.00 0.00 0.00 82 1016.4
20210123094027 69 56 0.0 0.0 0.00 0.00 0.00 82 1016.4
20210123093817 69 56 0.0 0.0 0.00 0.00 0.00 82 1016.3
20210123093721 69 56 0.0 0.0 0.00 0.00 0.00 82 1016.3
20210123093616 69 56 0.0 0.0 0.00 0.00 0.00 82 1016.3
20210123093526 69 56 0.0 0.0 0.00 0.00 0.00 82 1016.3
20210123093118 69 56 0.0 0.0 0.00 0.00 0.00 82 1016.3
20210123092920 69 56 0.0 0.0 0.00 0.00 0.00 82 1016.3
20210123092816 69 56 0.0 0.0 0.00 0.00 0.00 82 1016.4
20210123092615 69 56 0.0 0.0 0.00 0.00 0.00 82 1016.3
20210123092416 69 56 0.0 0.0 0.00 0.00 0.00 82 1016.4
20210123092228 69 56 0.0 0.0 0.00 0.00 0.00 82 1016.3
20210123092116 69 56 0.0 0.0 0.00 0.00 0.00 82 1016.3
20210123092021 69 56 0.0 0.0 0.00 0.00 0.00 82 1016.3
20210123091816 69 56 0.0 0.0 0.00 0.00 0.00 82 1016.3
20210123091523 69 56 0.0 0.0 0.00 0.00 0.00 82 1016.3
20210123091415 69 56 0.0 0.0 0.00 0.00 0.00 82 1016.4
20210123091215 69 56 0.0 0.0 0.00 0.00 0.00 82 1016.3
20210123091116 69 56 0.0 0.0 0.00 0.00 0.00 82 1016.3
20210123090917 69 56 0.0 0.0 0.00 0.00 0.00 82 1016.3
20210123090616 69 56 0.0 0.0 0.00 0.00 0.00 82 1016.3
20210123090525 69 56 0.0 0.0 0.00 0.00 0.00 82 1016.4
20210123090417 69 56 0.0 0.0 0.00 0.00 0.00 82 1016.4
20210123090317 70 56 0.0 0.0 0.00 0.00 0.00 82 1016.3
20210123085916 69 56 0.0 0.0 0.00 0.00 0.00 82 1016.3
20210123085815 70 56 0.0 0.0 0.00 0.00 0.00 82 1016.3
20210123085620 69 56 0.0 0.0 0.00 0.00 0.00 82 1016.4
20210123085416 69 56 0.0 0.0 0.00 0.00 0.00 82 1016.4
20210123085221 69 56 0.0 0.0 0.00 0.00 0.00 82 1016.4
20210123085117 69 56 0.0 0.0 0.00 0.00 0.00 82 1016.4
20210123084617 69 56 0.0 0.0 0.00 0.00 0.00 82 1016.3
20210123084419 70 56 0.0 0.0 0.00 0.00 0.00 82 1016.4
20210123084216 69 56 0.0 0.0 0.00 0.00 0.00 81 1016.4
20210123083916 70 56 0.0 0.0 0.00 0.00 0.00 82 1016.4
20210123083617 70 56 0.0 0.0 0.00 0.00 0.00 82 1016.4
20210123083416 69 56 0.0 0.0 0.00 0.00 0.00 82 1016.5
20210123083120 70 56 0.0 0.0 0.00 0.00 0.00 82 1016.5
20210123083038 69 56 0.0 0.0 0.00 0.00 0.00 82 1016.5
20210123082916 70 56 0.0 0.0 0.00 0.00 0.00 82 1016.5
20210123082816 69 56 0.0 0.0 0.00 0.00 0.00 82 1016.5
20210123082416 70 56 0.0 0.0 0.00 0.00 0.00 82 1016.5
20210123082317 69 56 0.0 0.0 0.00 0.00 0.00 82 1016.5
20210123082218 70 56 0.0 0.0 0.00 0.00 0.00 82 1016.5
20210123082016 70 56 0.0 0.0 0.00 0.00 0.00 82 1016.5
20210123081816 69 56 0.0 0.0 0.00 0.00 0.00 82 1016.5
20210123081522 69 56 0.0 0.0 0.00 0.00 0.00 82 1016.5
20210123081416 70 56 0.0 0.0 0.00 0.00 0.00 82 1016.5
20210123081024 69 56 0.0 0.0 0.00 0.00 0.00 82 1016.6
20210123080817 70 56 0.0 0.0 0.00 0.00 0.00 82 1016.6
20210123080616 69 56 0.0 0.0 0.00 0.00 0.00 82 1016.6
20210123080517 70 56 0.0 0.0 0.00 0.00 0.00 82 1016.5
20210123080315 70 56 0.0 0.0 0.00 0.00 0.00 81 1016.6
20210123080218 70 56 0.0 0.0 0.00 0.00 0.00 81 1016.5
20210123080027 69 56 0.0 0.0 0.00 0.00 0.00 81 1016.6
20210123075718 70 56 0.0 0.0 0.00 0.00 0.00 81 1016.5
20210123075216 70 56 0.0 0.0 0.00 0.00 0.00 82 1016.6
20210123075119 70 56 0.0 0.0 0.00 0.00 0.00 82 1016.6
20210123074916 70 56 0.0 0.0 0.00 0.00 0.00 82 1016.6
20210123074819 70 56 0.0 0.0 0.00 0.00 0.00 82 1016.6
20210123074415 70 56 0.0 0.0 0.00 0.00 0.00 82 1016.6
20210123074317 70 56 0.0 0.0 0.00 0.00 0.00 82 1016.6
20210123074224 70 56 0.0 0.0 0.00 0.00 0.00 82 1016.6
20210123073820 70 56 0.0 0.0 0.00 0.00 0.00 82 1016.6
20210123073615 70 56 0.0 0.0 0.00 0.00 0.00 82 1016.7
20210123073316 70 56 0.0 0.0 0.00 0.00 0.00 82 1016.7
20210123072816 70 56 0.0 0.0 0.00 0.00 0.00 81 1016.8
20210123072615 70 56 0.0 0.0 0.00 0.00 0.00 81 1016.8
20210123072034 70 56 0.0 0.0 0.00 0.00 0.00 81 1016.8
20210123071716 70 56 0.0 0.0 0.00 0.00 0.00 81 1016.8
20210123071617 70 56 0.0 0.0 0.00 0.00 0.00 81 1016.8
20210123071527 70 56 0.0 0.0 0.00 0.00 0.00 81 1016.8
20210123071417 70 56 0.0 0.0 0.00 0.00 0.00 81 1016.8
20210123071316 70 56 0.0 0.0 0.00 0.00 0.00 81 1016.8
20210123071223 70 56 0.0 0.0 0.00 0.00 0.00 81 1016.8
20210123070916 70 56 0.0 0.0 0.00 0.00 0.00 81 1016.8
20210123070816 70 56 0.0 0.0 0.00 0.00 0.00 81 1016.8
20210123070419 70 56 0.0 0.0 0.00 0.00 0.00 81 1016.9
20210123070217 70 56 0.0 0.0 0.00 0.00 0.00 81 1016.8
20210123070029 70 56 0.0 0.0 0.00 0.00 0.00 81 1016.8
20210123065216 70 56 0.0 0.0 0.00 0.00 0.00 81 1017.0
20210123065115 70 56 0.0 0.0 0.00 0.00 0.00 81 1017.0
20210123065032 70 56 0.0 0.0 0.00 0.00 0.00 82 1016.9
20210123064816 70 56 0.0 0.0 0.00 0.00 0.00 82 1017.0
20210123064116 70 56 0.0 0.0 0.00 0.00 0.00 81 1017.0
20210123063816 70 56 0.0 0.0 0.00 0.00 0.00 81 1017.0
20210123063717 70 56 0.0 0.0 0.00 0.00 0.00 81 1017.1
20210123063216 70 56 0.0 0.0 0.00 0.00 0.00 81 1017.1
20210123063025 70 56 0.0 0.0 0.00 0.00 0.00 81 1017.1
20210123062919 70 56 0.0 0.0 0.00 0.00 0.00 81 1017.2
20210123062816 70 56 0.0 0.0 0.00 0.00 0.00 81 1017.2
20210123062715 70 56 0.0 0.0 0.00 0.00 0.00 81 1017.2
20210123062528 70 56 0.0 0.0 0.00 0.00 0.00 81 1017.2
20210123062419 70 56 0.0 0.0 0.00 0.00 0.00 81 1017.2
20210123062324 70 56 0.0 0.0 0.00 0.00 0.00 81 1017.2
20210123062219 70 56 0.0 0.0 0.00 0.00 0.00 81 1017.2
20210123061716 70 56 0.0 0.0 0.00 0.00 0.00 82 1017.2
20210123061622 70 56 0.0 0.0 0.00 0.00 0.00 82 1017.3
20210123061535 70 56 0.0 0.0 0.00 0.00 0.00 82 1017.2
20210123061321 70 56 0.0 0.0 0.00 0.00 0.00 82 1017.2
20210123060917 70 56 0.0 0.0 0.00 0.00 0.00 83 1017.3
20210123060816 70 56 0.0 0.0 0.00 0.00 0.00 83 1017.3
20210123060722 70 56 0.0 0.0 0.00 0.00 0.00 82 1017.3
20210123060536 70 56 0.0 0.0 0.00 0.00 0.00 83 1017.3
20210123060115 70 56 0.0 0.0 0.00 0.00 0.00 83 1017.3
20210123055815 70 56 0.0 0.0 0.00 0.00 0.00 82 1017.3
20210123055717 70 56 0.0 0.0 0.00 0.00 0.00 82 1017.3
20210123055618 70 56 0.0 0.0 0.00 0.00 0.00 82 1017.4
20210123055522 70 56 0.0 0.0 0.00 0.00 0.00 82 1017.4
20210123055116 70 56 0.0 0.0 0.00 0.00 0.00 82 1017.4
20210123054915 70 56 0.0 0.0 0.00 0.00 0.00 82 1017.4
20210123054543 70 56 0.0 0.0 0.00 0.00 0.00 82 1017.3
20210123054316 70 56 0.0 0.0 0.00 0.00 0.00 82 1017.4
20210123054216 70 56 0.0 0.0 0.00 0.00 0.00 82 1017.4
20210123053423 70 56 0.0 0.0 0.00 0.00 0.00 82 1017.3
20210123053322 70 56 0.0 0.0 0.00 0.00 0.00 82 1017.4
20210123053039 70 56 0.0 0.0 0.00 0.00 0.00 82 1017.4
20210123052926 70 56 0.0 0.0 0.00 0.00 0.00 81 1017.4
20210123052720 70 56 0.0 0.0 0.00 0.00 0.00 81 1017.4
20210123052525 70 56 0.0 0.0 0.00 0.00 0.00 81 1017.4
20210123052316 70 56 0.0 0.0 0.00 0.00 0.00 81 1017.3
20210123051922 70 56 0.0 0.0 0.00 0.00 0.00 81 1017.4
20210123051816 70 56 0.0 0.0 0.00 0.00 0.00 81 1017.4
20210123051717 70 56 0.0 0.0 0.00 0.00 0.00 81 1017.4
20210123051627 70 56 0.0 0.0 0.00 0.00 0.00 81 1017.5
20210123051116 70 56 0.0 0.0 0.00 0.00 0.00 80 1017.5
20210123050616 70 56 0.0 0.0 0.00 0.00 0.00 80 1017.6
20210123050416 70 56 0.0 0.0 0.00 0.00 0.00 80 1017.5
20210123050121 71 56 0.0 0.0 0.00 0.00 0.00 81 1017.6
20210123050027 71 56 0.0 0.0 0.00 0.00 0.00 81 1017.5
20210123045917 71 56 0.0 0.0 0.00 0.00 0.00 81 1017.5
20210123045722 71 56 0.0 0.0 0.00 0.00 0.00 80 1017.5
20210123045617 71 56 0.0 0.0 0.00 0.00 0.00 80 1017.5
20210123045519 71 56 0.0 0.0 0.00 0.00 0.00 80 1017.6
20210123045417 71 56 0.0 0.0 0.00 0.00 0.00 80 1017.6
20210123045121 71 56 0.0 0.0 0.00 0.00 0.00 80 1017.6
20210123044817 71 56 0.0 0.0 0.00 0.00 0.00 80 1017.5
20210123044716 71 56 0.0 0.0 0.00 0.00 0.00 80 1017.5
20210123044528 71 56 0.0 0.0 0.00 0.00 0.00 80 1017.6
20210123044415 71 56 0.0 0.0 0.00 0.00 0.00 80 1017.6
20210123044317 71 56 0.0 0.0 0.00 0.00 0.00 80 1017.6
20210123044029 71 56 0.0 0.0 0.00 0.00 0.00 80 1017.6
20210123043816 71 56 0.0 0.0 0.00 0.00 0.00 80 1017.6
20210123043716 71 56 0.0 0.0 0.00 0.00 0.00 80 1017.6
20210123043216 71 56 0.0 0.0 0.00 0.00 0.00 80 1017.6
20210123043031 71 56 0.0 0.0 0.00 0.00 0.00 80 1017.6
20210123042916 71 56 0.0 0.0 0.00 0.00 0.00 80 1017.6
20210123042616 71 56 0.0 1.0 0.00 0.00 0.00 80 1017.6
20210123042522 71 56 0.0 1.0 0.00 0.00 0.00 80 1017.6
20210123042421 71 56 0.0 1.0 0.00 0.00 0.00 80 1017.6
20210123042216 71 56 0.0 0.0 0.00 0.00 0.00 80 1017.6
20210123042116 71 53 0.0 0.0 0.00 0.00 0.00 80 1017.7
20210123042023 71 30 0.0 0.0 0.00 0.00 0.00 80 1017.6
20210123041917 71 30 0.0 0.0 0.00 0.00 0.00 80 1017.6
20210123041815 71 30 0.0 0.0 0.00 0.00 0.00 80 1017.6
20210123041716 71 30 0.0 0.0 0.00 0.00 0.00 80 1017.7
20210123041529 71 30 0.0 0.0 0.00 0.00 0.00 79 1017.7
20210123041416 71 30 0.0 0.0 0.00 0.00 0.00 79 1017.7
20210123041231 71 30 0.0 0.0 0.00 0.00 0.00 79 1017.7
20210123041115 71 30 0.0 0.0 0.00 0.00 0.00 79 1017.6
20210123041024 71 30 0.0 0.0 0.00 0.00 0.00 79 1017.7
20210123040319 71 30 0.0 0.0 0.00 0.00 0.00 78 1017.7
20210123035918 71 30 0.0 0.0 0.00 0.00 0.00 78 1017.7
20210123035823 71 30 0.0 0.0 0.00 0.00 0.00 78 1017.7
20210123034719 71 30 0.0 0.0 0.00 0.00 0.00 78 1017.7
20210123034616 71 30 0.0 0.0 0.00 0.00 0.00 78 1017.7
20210123034528 72 30 0.0 0.0 0.00 0.00 0.00 78 1017.7
20210123034317 71 30 0.0 0.0 0.00 0.00 0.00 78 1017.7
20210123034215 71 30 0.0 0.0 0.00 0.00 0.00 78 1017.7
20210123034031 71 30 0.0 0.0 0.00 0.00 0.00 78 1017.7
20210123033716 71 30 0.0 0.0 0.00 0.00 0.00 78 1017.7
20210123033321 72 30 0.0 0.0 0.00 0.00 0.00 78 1017.7
20210123033116 72 30 0.0 0.0 0.00 0.00 0.00 78 1017.7
20210123033027 72 30 0.0 0.0 0.00 0.00 0.00 78 1017.7
20210123032616 72 30 0.0 0.0 0.00 0.00 0.00 78 1017.7
20210123032524 71 30 0.0 0.0 0.00 0.00 0.00 78 1017.7
20210123032120 72 30 0.0 0.0 0.00 0.00 0.00 77 1017.7
20210123031816 72 30 0.0 0.0 0.00 0.00 0.00 77 1017.8
20210123031715 72 30 0.0 0.0 0.00 0.00 0.00 77 1017.8
20210123031524 72 30 0.0 0.0 0.00 0.00 0.00 77 1017.8
20210123031416 72 30 0.0 0.0 0.00 0.00 0.00 77 1017.9
20210123031320 72 30 0.0 0.0 0.00 0.00 0.00 77 1017.8
20210123031215 72 30 0.0 0.0 0.00 0.00 0.00 76 1017.8
20210123031116 72 30 0.0 0.0 0.00 0.00 0.00 77 1017.8
20210123030816 72 30 0.0 0.0 0.00 0.00 0.00 77 1017.8
20210123030716 72 30 0.0 0.0 0.00 0.00 0.00 77 1017.8
20210123030616 72 30 0.0 0.0 0.00 0.00 0.00 77 1017.8
20210123030525 72 30 0.0 0.0 0.00 0.00 0.00 77 1017.8
20210123030416 72 30 0.0 0.0 0.00 0.00 0.00 77 1017.8
20210123030216 72 30 0.0 0.0 0.00 0.00 0.00 77 1017.8
20210123025717 72 30 0.0 0.0 0.00 0.00 0.00 77 1017.7
20210123025618 72 30 0.0 0.0 0.00 0.00 0.00 77 1017.7
20210123025518 72 30 0.0 0.0 0.00 0.00 0.00 77 1017.7
20210123025416 72 30 0.0 0.0 0.00 0.00 0.00 77 1017.7
20210123025117 72 30 0.0 1.0 0.00 0.00 0.00 77 1017.7
20210123025022 72 30 0.0 1.0 0.00 0.00 0.00 77 1017.7
20210123024716 72 30 0.0 1.0 0.00 0.00 0.00 77 1017.7
20210123024416 72 43 1.0 1.0 0.00 0.00 0.00 77 1017.7
20210123024321 72 26 0.0 1.0 0.00 0.00 0.00 77 1017.7
20210123024216 72 26 0.0 1.0 0.00 0.00 0.00 77 1017.7
20210123024117 72 26 0.0 1.0 0.00 0.00 0.00 77 1017.7
20210123023616 72 29 0.0 0.0 0.00 0.00 0.00 77 1017.7
20210123023523 72 29 0.0 0.0 0.00 0.00 0.00 77 1017.7
20210123023042 72 29 0.0 0.0 0.00 0.00 0.00 77 1017.7
20210123022815 72 29 0.0 0.0 0.00 0.00 0.00 77 1017.7
20210123022716 72 29 0.0 0.0 0.00 0.00 0.00 77 1017.7
20210123022615 72 29 0.0 0.0 0.00 0.00 0.00 77 1017.7
20210123022039 72 36 0.0 2.0 0.00 0.00 0.00 77 1017.7
20210123021815 73 25 0.0 2.0 0.00 0.00 0.00 77 1017.7
20210123021726 73 59 0.0 2.0 0.00 0.00 0.00 77 1017.7
20210123021546 72 26 0.0 2.0 0.00 0.00 0.00 77 1017.8
20210123021116 73 47 0.0 2.0 0.00 0.00 0.00 77 1017.8
20210123020920 73 47 0.0 2.0 0.00 0.00 0.00 77 1017.8
20210123020615 73 47 0.0 2.0 0.00 0.00 0.00 77 1017.9
20210123020537 73 47 0.0 2.0 0.00 0.00 0.00 77 1017.8
20210123020316 73 26 0.0 1.0 0.00 0.00 0.00 77 1017.9
20210123020215 73 26 0.0 1.0 0.00 0.00 0.00 77 1017.8
20210123020120 73 351 0.0 1.0 0.00 0.00 0.00 77 1017.8
20210123020030 73 351 0.0 1.0 0.00 0.00 0.00 77 1017.8
20210123015815 73 351 0.0 0.0 0.00 0.00 0.00 77 1017.9
20210123015216 73 42 0.0 0.0 0.00 0.00 0.00 76 1017.9
20210123014817 73 42 0.0 0.0 0.00 0.00 0.00 76 1017.8
20210123014616 73 42 0.0 0.0 0.00 0.00 0.00 76 1017.8
20210123014522 73 42 0.0 0.0 0.00 0.00 0.00 76 1017.8
20210123014219 73 42 0.0 0.0 0.00 0.00 0.00 76 1017.7
20210123013915 73 42 0.0 0.0 0.00 0.00 0.00 76 1017.7
20210123013817 73 42 0.0 0.0 0.00 0.00 0.00 76 1017.7
20210123013717 73 42 0.0 0.0 0.00 0.00 0.00 76 1017.7
20210123013526 73 42 0.0 0.0 0.00 0.00 0.00 77 1017.7
20210123013317 73 42 0.0 0.0 0.00 0.00 0.00 77 1017.7
20210123013116 73 42 0.0 0.0 0.00 0.00 0.00 76 1017.7
20210123012816 73 42 0.0 0.0 0.00 0.00 0.00 76 1017.7
20210123011917 73 42 0.0 0.0 0.00 0.00 0.00 76 1017.5
20210123011817 73 42 0.0 0.0 0.00 0.00 0.00 76 1017.5
20210123011716 73 42 0.0 0.0 0.00 0.00 0.00 76 1017.5
20210123011620 73 42 0.0 0.0 0.00 0.00 0.00 76 1017.5
20210123011526 73 42 0.0 0.0 0.00 0.00 0.00 76 1017.5
20210123011315 73 42 0.0 0.0 0.00 0.00 0.00 76 1017.4
20210123011118 73 42 0.0 0.0 0.00 0.00 0.00 76 1017.4
20210123011021 73 42 0.0 0.0 0.00 0.00 0.00 76 1017.4
20210123010719 74 42 0.0 0.0 0.00 0.00 0.00 75 1017.4
20210123010419 73 42 0.0 0.0 0.00 0.00 0.00 75 1017.4
20210123010217 73 42 0.0 0.0 0.00 0.00 0.00 75 1017.4
20210123005821 73 42 0.0 0.0 0.00 0.00 0.00 75 1017.3
20210123005715 73 42 0.0 0.0 0.00 0.00 0.00 75 1017.2
20210123005525 73 42 0.0 0.0 0.00 0.00 0.00 75 1017.2
20210123005425 74 42 0.0 0.0 0.00 0.00 0.00 75 1017.2
20210123004716 73 42 0.0 0.0 0.00 0.00 0.00 74 1017.2
20210123004616 74 42 0.0 0.0 0.00 0.00 0.00 74 1017.2
20210123004535 74 42 0.0 0.0 0.00 0.00 0.00 74 1017.2
20210123004415 74 42 0.0 0.0 0.00 0.00 0.00 74 1017.2
20210123004316 74 42 0.0 0.0 0.00 0.00 0.00 74 1017.2
20210123004216 73 42 0.0 0.0 0.00 0.00 0.00 74 1017.2
20210123003919 74 42 0.0 0.0 0.00 0.00 0.00 74 1017.1
20210123003820 73 42 0.0 0.0 0.00 0.00 0.00 74 1017.1
20210123003722 74 42 0.0 0.0 0.00 0.00 0.00 74 1017.1
20210123003618 74 42 0.0 0.0 0.00 0.00 0.00 74 1017.1
20210123003115 74 42 0.0 0.0 0.00 0.00 0.00 74 1016.9
20210123003033 74 42 0.0 0.0 0.00 0.00 0.00 74 1017.0
20210123002819 74 42 0.0 0.0 0.00 0.00 0.00 74 1016.9
20210123002715 73 42 0.0 0.0 0.00 0.00 0.00 74 1016.9
20210123002317 74 42 0.0 0.0 0.00 0.00 0.00 74 1016.9
20210123002216 74 42 0.0 0.0 0.00 0.00 0.00 73 1016.9
20210123002117 74 42 0.0 0.0 0.00 0.00 0.00 73 1016.9
20210123002027 74 42 0.0 0.0 0.00 0.00 0.00 73 1016.8
20210123001919 74 42 0.0 0.0 0.00 0.00 0.00 73 1016.9
20210123001521 74 42 0.0 0.0 0.00 0.00 0.00 73 1016.8
20210123001115 74 42 0.0 0.0 0.00 0.00 0.00 73 1016.7
20210123001024 74 42 0.0 0.0 0.00 0.00 0.00 73 1016.7
20210123000915 74 42 0.0 0.0 0.00 0.00 0.00 73 1016.8
20210123000821 74 42 0.0 0.0 0.00 0.00 0.00 73 1016.8
20210123000717 74 42 0.0 0.0 0.00 0.00 0.00 73 1016.8
20210122235815 74 42 0.0 0.0 0.00 0.00 0.00 72 1016.7
20210122235716 74 42 0.0 0.0 0.00 0.00 0.00 72 1016.7
20210122235631 74 42 0.0 0.0 0.00 0.00 0.00 72 1016.7
20210122235327 74 42 0.0 0.0 0.00 0.00 0.00 72 1016.6
20210122235126 74 42 0.0 0.0 0.00 0.00 0.00 72 1016.6
20210122235023 74 42 0.0 0.0 0.00 0.00 0.00 72 1016.6
20210122234817 74 42 0.0 0.0 0.00 0.00 0.00 72 1016.6
20210122234724 74 42 0.0 0.0 0.00 0.00 0.00 72 1016.6
20210122234118 74 42 0.0 0.0 0.00 0.00 0.00 72 1016.5
20210122234031 74 42 0.0 0.0 0.00 0.00 0.00 72 1016.5
20210122233717 74 42 0.0 0.0 0.00 0.00 0.00 72 1016.5
20210122233616 74 42 0.0 0.0 0.00 0.00 0.00 72 1016.4
20210122233518 74 42 0.0 0.0 0.00 0.00 0.00 72 1016.4
20210122233416 75 42 0.0 0.0 0.00 0.00 0.00 72 1016.4
20210122233115 74 42 0.0 0.0 0.00 0.00 0.00 72 1016.4
20210122232916 74 42 0.0 0.0 0.00 0.00 0.00 71 1016.4
20210122232722 75 42 0.0 0.0 0.00 0.00 0.00 71 1016.3
20210122232317 75 42 0.0 0.0 0.00 0.00 0.00 71 1016.3
20210122231916 75 42 0.0 0.0 0.00 0.00 0.00 70 1016.3
20210122231716 75 42 0.0 0.0 0.00 0.00 0.00 70 1016.3
20210122231617 75 42 0.0 0.0 0.00 0.00 0.00 70 1016.3
20210122231525 75 42 0.0 0.0 0.00 0.00 0.00 70 1016.3
20210122231420 75 42 0.0 0.0 0.00 0.00 0.00 70 1016.2
20210122231319 75 42 0.0 0.0 0.00 0.00 0.00 70 1016.3
20210122231217 75 42 0.0 0.0 0.00 0.00 0.00 70 1016.2
20210122230931 75 42 0.0 0.0 0.00 0.00 0.00 70 1016.2
20210122230723 75 42 0.0 1.0 0.00 0.00 0.00 70 1016.2
20210122230524 75 42 0.0 1.0 0.00 0.00 0.00 70 1016.2
20210122230316 75 71 0.0 3.0 0.00 0.00 0.00 70 1016.1
20210122230120 75 71 0.0 3.0 0.00 0.00 0.00 70 1016.2
20210122225618 76 66 0.0 0.0 0.00 0.00 0.00 70 1016.0
20210122225527 75 66 0.0 0.0 0.00 0.00 0.00 70 1016.0
20210122225318 76 66 0.0 0.0 0.00 0.00 0.00 70 1016.0
20210122225120 76 66 0.0 0.0 0.00 0.00 0.00 70 1016.0
20210122225021 76 66 0.0 0.0 0.00 0.00 0.00 70 1016.0
20210122224716 76 66 0.0 0.0 0.00 0.00 0.00 69 1016.0
20210122224615 76 66 0.0 0.0 0.00 0.00 0.00 69 1016.1
20210122224316 76 66 0.0 0.0 0.00 0.00 0.00 69 1016.0
20210122224216 76 66 0.0 0.0 0.00 0.00 0.00 69 1016.0
20210122223919 76 36 0.0 0.0 0.00 0.00 0.00 68 1016.0
20210122223715 76 36 0.0 0.0 0.00 0.00 0.00 68 1015.9
20210122223525 76 36 0.0 0.0 0.00 0.00 0.00 68 1015.9
20210122223315 76 36 0.0 0.0 0.00 0.00 0.00 68 1015.9
20210122222720 76 47 0.0 2.0 0.00 0.00 0.00 68 1015.9
20210122222615 76 47 0.0 2.0 0.00 0.00 0.00 68 1015.9
20210122222533 76 47 0.0 2.0 0.00 0.00 0.00 68 1015.9
20210122222415 76 47 0.0 2.0 0.00 0.00 0.00 67 1015.9
20210122222116 76 57 0.0 2.0 0.00 0.00 0.00 67 1016.0
20210122221923 76 57 0.0 2.0 0.00 0.00 0.00 68 1016.0
20210122221815 76 57 0.0 2.0 0.00 0.00 0.00 68 1016.0
20210122221717 76 45 0.0 2.0 0.00 0.00 0.00 68 1016.0
20210122221615 76 45 0.0 2.0 0.00 0.00 0.00 68 1016.0
20210122221416 76 73 0.0 2.0 0.00 0.00 0.00 68 1015.9
20210122221032 77 56 0.0 2.0 0.00 0.00 0.00 67 1015.9
20210122220517 77 153 0.0 0.0 0.00 0.00 0.00 67 1015.9
20210122220415 77 153 0.0 0.0 0.00 0.00 0.00 67 1015.9
20210122220317 77 153 0.0 0.0 0.00 0.00 0.00 67 1015.8
20210122215917 77 153 0.0 0.0 0.00 0.00 0.00 66 1015.8
20210122215217 77 153 0.0 2.0 0.00 0.00 0.00 66 1015.8
20210122214919 77 153 0.0 2.0 0.00 0.00 0.00 66 1015.7
20210122214816 77 153 0.0 1.0 0.00 0.00 0.00 66 1015.7
20210122214319 77 106 0.0 1.0 0.00 0.00 0.00 66 1015.7
20210122214026 77 108 0.0 1.0 0.00 0.00 0.00 66 1015.7
20210122213916 77 108 0.0 1.0 0.00 0.00 0.00 66 1015.7
20210122213616 77 118 0.0 1.0 0.00 0.00 0.00 66 1015.8
20210122213524 77 118 0.0 1.0 0.00 0.00 0.00 66 1015.7
20210122213416 77 118 0.0 1.0 0.00 0.00 0.00 66 1015.8
20210122213217 77 118 0.0 1.0 0.00 0.00 0.00 66 1015.8
20210122213021 77 64 0.0 1.0 0.00 0.00 0.00 66 1015.8
20210122212816 77 64 0.0 1.0 0.00 0.00 0.00 66 1015.8
20210122212523 77 64 0.0 1.0 0.00 0.00 0.00 66 1015.8
20210122212416 77 64 0.0 1.0 0.00 0.00 0.00 66 1015.8
20210122212319 77 116 0.0 1.0 0.00 0.00 0.00 66 1015.7
20210122212220 77 116 0.0 1.0 0.00 0.00 0.00 66 1015.7
20210122212123 77 116 0.0 1.0 0.00 0.00 0.00 66 1015.7
20210122211816 77 116 0.0 3.0 0.00 0.00 0.00 66 1015.7
20210122211719 77 116 0.0 3.0 0.00 0.00 0.00 66 1015.8
20210122211416 77 77 0.0 3.0 0.00 0.00 0.00 65 1015.7
20210122211317 77 36 0.0 4.0 0.00 0.00 0.00 66 1015.8
20210122211216 77 142 0.0 4.0 0.00 0.00 0.00 66 1015.7
20210122210922 77 130 0.0 4.0 0.00 0.00 0.00 65 1015.7
20210122210819 77 165 0.0 1.0 0.00 0.00 0.00 65 1015.7
20210122210718 78 165 0.0 1.0 0.00 0.00 0.00 66 1015.7
20210122210517 78 165 0.0 1.0 0.00 0.00 0.00 66 1015.6
20210122210318 77 165 0.0 0.0 0.00 0.00 0.00 66 1015.7
20210122210217 77 153 0.0 0.0 0.00 0.00 0.00 66 1015.6
20210122210021 77 153 0.0 0.0 0.00 0.00 0.00 65 1015.7
20210122205525 78 153 0.0 0.0 0.00 0.00 0.00 65 1015.7
20210122205416 78 153 0.0 0.0 0.00 0.00 0.00 65 1015.7
20210122205318 77 153 0.0 0.0 0.00 0.00 0.00 65 1015.7
20210122205117 78 153 0.0 0.0 0.00 0.00 0.00 65 1015.7
20210122205024 77 153 0.0 0.0 0.00 0.00 0.00 65 1015.7
20210122204816 77 153 0.0 0.0 0.00 0.00 0.00 65 1015.7
20210122204725 78 153 0.0 0.0 0.00 0.00 0.00 65 1015.7
20210122204524 77 153 0.0 0.0 0.00 0.00 0.00 65 1015.7
20210122204416 77 153 0.0 0.0 0.00 0.00 0.00 65 1015.7
20210122204321 78 153 0.0 0.0 0.00 0.00 0.00 65 1015.7
20210122204020 77 153 0.0 0.0 0.00 0.00 0.00 65 1015.7
20210122203917 77 153 0.0 0.0 0.00 0.00 0.00 66 1015.7
20210122203716 77 153 0.0 0.0 0.00 0.00 0.00 66 1015.7